DW7857 Weather Reports


time (UTC)temp
C
wind
direction
speed
KPH
gust
KPH
rain 1hr
cm
rain 24hr
cm
rain mn
cm
humidity
%
barometer
mb
20180815083010 20 246 6.4 11.3 0.00 0.00 0.00 69 1006.7
20180815082010 20 214 8.0 12.9 0.00 0.00 0.00 69 1006.8
20180815081009 20 176 8.0 12.9 0.00 0.00 0.00 71 1006.8
20180815080009 20 211 9.7 12.9 0.00 0.00 0.00 70 1006.8
20180815075009 20 195 8.0 12.9 0.00 0.00 0.00 71 1007.1
20180815074009 18 215 6.4 9.7 0.00 0.00 0.00 74 1006.7
20180815073009 18 221 8.0 11.3 0.00 0.00 0.00 73 1006.7
20180815072010 18 203 8.0 11.3 0.00 0.00 0.00 75 1006.6
20180815071009 18 195 8.0 9.7 0.00 0.00 0.00 77 1006.6
20180815070009 17 234 4.8 6.4 0.00 0.00 0.00 77 1006.5
20180815065009 17 236 4.8 9.7 0.00 0.00 0.00 79 1006.5
20180815064009 17 241 6.4 11.3 0.00 0.00 0.00 81 1006.6
20180815063009 17 197 6.4 8.0 0.00 0.00 0.00 81 1006.8
20180815062009 17 202 4.8 8.0 0.00 0.00 0.00 81 1006.9
20180815061010 17 201 3.2 4.8 0.00 0.00 0.00 81 1006.8
20180815060009 16 206 4.8 6.4 0.00 0.00 0.00 81 1006.5
20180815055009 16 186 3.2 4.8 0.00 0.00 0.00 81 1006.5
20180815054010 16 189 3.2 3.2 0.00 0.00 0.00 81 1006.6
20180815053010 16 217 3.2 4.8 0.00 0.00 0.00 81 1006.5
20180815052009 16 204 3.2 6.4 0.00 0.00 0.00 81 1006.5
20180815051009 16 212 3.2 6.4 0.00 0.00 0.00 81 1006.4
20180815050009 16 208 3.2 6.4 0.00 0.00 0.00 81 1006.4
20180815045009 16 203 3.2 3.2 0.00 0.00 0.00 81 1006.4
20180815044009 16 191 6.4 9.7 0.00 0.00 0.00 81 1006.2
20180815043009 16 197 4.8 8.0 0.00 0.00 0.00 80 1006.4
20180815042009 17 215 3.2 6.4 0.00 0.00 0.00 80 1006.1
20180815041009 17 215 3.2 6.4 0.00 0.00 0.00 80 1006.3
20180815040009 17 228 1.6 3.2 0.00 0.00 0.00 79 1006.4
20180815035009 17 209 1.6 3.2 0.00 0.00 0.00 79 1006.3
20180815034009 17 222 3.2 6.4 0.00 0.00 0.00 79 1006.3
20180815033010 17 237 3.2 6.4 0.00 0.00 0.00 79 1006.4
20180815032009 17 203 3.2 6.4 0.00 0.00 0.00 79 1006.4
20180815031010 17 218 3.2 4.8 0.00 0.00 0.00 80 1006.4
20180815030009 17 306 6.4 8.0 0.00 0.00 0.00 80 1006.6
20180815025010 17 283 6.4 8.0 0.00 0.00 0.00 80 1006.6
20180815024009 17 300 8.0 14.5 0.00 0.00 0.00 80 1006.5
20180815023009 17 309 4.8 6.4 0.00 0.00 0.00 80 1006.9
20180815022009 17 299 6.4 8.0 0.00 0.00 0.00 80 1006.8
20180815021009 17 234 4.8 6.4 0.00 0.00 0.00 80 1006.6
20180815020009 17 284 4.8 6.4 0.00 0.00 0.00 80 1006.8
20180815015009 17 239 3.2 6.4 0.00 0.00 0.00 80 1006.8
20180815014009 17 266 4.8 6.4 0.00 0.00 0.00 80 1006.8
20180815013009 17 285 4.8 6.4 0.00 0.00 0.00 80 1006.5
20180815012010 17 314 6.4 12.9 0.00 0.00 0.00 80 1006.8
20180815011016 17 277 3.2 6.4 0.00 0.00 0.00 80 1006.9
20180815010015 17 284 8.0 17.7 0.00 0.00 0.00 80 1006.7
20180815005015 17 258 6.4 9.7 0.00 0.00 0.00 79 1006.8
20180815004015 17 290 6.4 8.0 0.00 0.00 0.00 79 1006.7
20180815003016 17 276 6.4 9.7 0.00 0.00 0.00 77 1006.7
20180815002015 17 301 6.4 8.0 0.00 0.00 0.00 77 1006.5
20180815001015 17 265 6.4 12.9 0.00 0.00 0.00 76 1007.0
20180815000021 17 246 6.4 11.3 0.00 0.00 0.00 76 1006.9
20180814235016 17 243 6.4 9.7 0.00 0.00 0.00 76 1007.0
20180814234015 17 269 4.8 9.7 0.00 0.00 0.00 77 1006.9
20180814233015 17 259 3.2 6.4 0.00 0.00 0.00 78 1007.1
20180814232015 17 255 6.4 12.9 0.00 0.00 0.00 78 1007.0
20180814231016 17 301 4.8 11.3 0.00 0.00 0.00 78 1007.2
20180814230016 17 273 6.4 12.9 0.00 0.00 0.00 78 1007.1
20180814225015 17 300 4.8 8.0 0.00 0.00 0.00 79 1007.2
20180814224015 17 289 4.8 8.0 0.00 0.00 0.00 79 1007.3
20180814223016 17 291 3.2 8.0 0.00 0.00 0.00 79 1007.2
20180814222015 17 254 3.2 4.8 0.00 0.00 0.00 79 1007.2
20180814221015 17 274 4.8 9.7 0.00 0.00 0.00 74 1007.3
20180814220015 17 231 4.8 8.0 0.00 0.00 0.00 74 1007.1
20180814215016 17 284 6.4 9.7 0.00 0.00 0.00 74 1007.3
20180814214015 17 300 8.0 11.3 0.00 0.00 0.00 74 1007.1
20180814213016 17 317 9.7 14.5 0.00 0.00 0.00 75 1007.4
20180814212015 17 307 6.4 9.7 0.00 0.00 0.00 76 1007.4
20180814211018 17 284 9.7 12.9 0.00 0.00 0.00 75 1007.0
20180814210017 17 304 8.0 12.9 0.00 0.00 0.00 75 1007.2
20180814205017 17 315 8.0 9.7 0.00 0.00 0.00 74 1007.1
20180814204015 17 314 8.0 11.3 0.00 0.00 0.00 74 1007.1
20180814203015 17 302 9.7 12.9 0.00 0.00 0.00 73 1007.0
20180814202015 17 314 8.0 9.7 0.00 0.00 0.00 73 1007.0
20180814201015 17 307 8.0 12.9 0.00 0.00 0.00 73 1007.0
20180814200015 18 300 6.4 11.3 0.00 0.00 0.00 72 1007.2
20180814195015 18 301 9.7 17.7 0.00 0.00 0.00 72 1007.1
20180814194015 18 307 6.4 8.0 0.00 0.00 0.00 72 1007.0
20180814193015 18 304 6.4 8.0 0.00 0.00 0.00 72 1006.7
20180814192015 18 308 8.0 12.9 0.00 0.00 0.00 72 1006.9
20180814191015 18 314 11.3 17.7 0.00 0.00 0.00 71 1006.8
20180814190015 18 320 6.4 9.7 0.00 0.00 0.00 71 1006.8
20180814185015 18 314 6.4 11.3 0.00 0.00 0.00 71 1006.8
20180814184015 18 291 8.0 12.9 0.00 0.00 0.00 71 1006.8
20180814183015 18 307 12.9 17.7 0.00 0.00 0.00 70 1006.5
20180814182015 19 307 11.3 14.5 0.00 0.00 0.00 67 1006.4
20180814181015 19 309 11.3 12.9 0.00 0.00 0.00 65 1006.2
20180814180009 20 276 9.7 12.9 0.00 0.00 0.00 64 1006.4
20180814175015 20 264 9.7 12.9 0.00 0.00 0.00 64 1006.2
20180814174015 20 300 9.7 12.9 0.00 0.00 0.00 64 1006.2
20180814173015 15 270 11.3 11.3 0.00 0.00 0.00 82 1005.8
20180814172015 15 270 11.3 11.3 0.00 0.00 0.00 82 1006.1
20180814171016 15 270 11.3 11.3 0.00 0.00 0.00 82 1005.9
20180814170015 15 270 11.3 11.3 0.00 0.00 0.00 82 1006.2
20180814165016 15 270 11.3 11.3 0.00 0.00 0.00 82 1006.1
20180814164016 15 270 11.3 11.3 0.00 0.00 0.00 82 1006.2
20180814163015 15 270 11.3 11.3 0.00 0.00 0.00 82 1006.1
20180814162016 15 270 11.3 11.3 0.00 0.00 0.00 82 1006.3
20180814161016 15 270 11.3 11.3 0.00 0.00 0.00 82 1006.1
20180814160015 15 270 11.3 11.3 0.00 0.00 0.00 82 1006.2
20180814155016 15 270 11.3 11.3 0.00 0.00 0.00 82 1006.3
20180814154016 15 270 11.3 11.3 0.00 0.00 0.00 82 1006.2
20180814153015 15 270 11.3 11.3 0.00 0.00 0.00 82 1006.2
20180814152016 15 270 11.3 11.3 0.00 0.00 0.00 82 1006.2
20180814151016 15 270 11.3 11.3 0.00 0.00 0.00 82 1006.1
20180814150016 15 270 11.3 11.3 0.00 0.00 0.00 82 1005.9
20180814145016 15 270 11.3 11.3 0.00 0.00 0.00 82 1006.2
20180814144016 15 270 11.3 11.3 0.00 0.00 0.00 82 1006.0
20180814143015 15 270 11.3 11.3 0.00 0.00 0.00 82 1006.1
20180814142016 15 270 11.3 11.3 0.00 0.00 0.00 82 1006.2
20180814141016 15 270 11.3 11.3 0.00 0.00 0.00 82 1006.1
20180814140016 15 270 11.3 11.3 0.00 0.00 0.00 82 1005.9
20180814135016 15 270 11.3 11.3 0.00 0.00 0.00 82 1006.0
20180814134016 15 270 11.3 11.3 0.00 0.00 0.00 82 1006.0
20180814133016 15 270 11.3 11.3 0.00 0.00 0.00 82 1005.8
20180814132015 15 270 11.3 11.3 0.00 0.00 0.00 82 1005.6
20180814131016 15 270 11.3 11.3 0.00 0.00 0.00 82 1005.7